Monroe, WI

6:23 PM CDT on October 13, 2019 (GMT -0500)
Monroe Municipal

Weather History for KEFT - August, 2019

Change the Weather History Date:

Monday, August 5, 2019

  Actual Average Record
Temperature  
Mean Temperature 76 °F -  
Max Temperature 87 °F 88 °F 88 °F (1966)
Min Temperature 65 °F 56 °F 35 °F (2002)
Cooling Degree Days 10    
Growing Degree Days 26 (Base 50)    
Moisture  
Dew Point 62 °F    
Average Humidity 63    
Maximum Humidity 96    
Minimum Humidity 40    
Precipitation  
Precipitation 0.57 in - - ()
Sea Level Pressure  
Sea Level Pressure 29.94 in    
Wind  
Wind Speed 8 mph (SW)    
Max Wind Speed 16 mph    
Max Gust Speed 40 mph    
Visibility 10 miles    
Events Rain , Thunderstorm    
Averages and records for this station are not official NWS values.
T = Trace of Precipitation, MM = Missing Value Source: NWS Daily Summary

Daily Weather History Graph

Daily Weather History Graph

Search for Another Location

Airport or City:

Astronomy

Aug. 05, 2019 Rise Set
Actual Time 5:54 AM CDT 8:13 PM CDT
Civil Twilight 5:22 AM CDT 8:45 PM CDT
Nautical Twilight 4:43 AM CDT 9:24 PM CDT
Astronomical Twilight 4:00 AM CDT 10:07 PM CDT
Moon 11:17 AM CDT (8/5) 11:18 PM CDT (8/5)
Length of Visible Light 15h 22m
Length of Day
14h 19m
Waxing Crescent, 28% of the Moon is Illuminated
Aug 5
Waxing Crescent
Aug 7
First Quarter
Aug 15
Full
Aug 23
Last Quarter
Aug 30
New

Hourly Weather History & Observations

Time (CDT) Temp. Heat Index Dew Point Humidity Pressure Visibility Wind Dir Wind Speed Gust Speed Precip Events Conditions
12:15 AM 70.7 °F - 63.7 °F 78% 30.03 in 10.0 mi SW 3.5 mph - N/A   Clear
12:35 AM 70.9 °F - 64.0 °F 79% 30.03 in 10.0 mi SW 4.6 mph - N/A   Clear
12:55 AM 71.8 °F - 64.2 °F 77% 30.02 in 10.0 mi SW 3.5 mph - N/A   Clear
1:15 AM 70.5 °F - 64.4 °F 81% 30.02 in 10.0 mi SW 4.6 mph - N/A   Clear
1:35 AM 70.3 °F - 64.4 °F 81% 30.02 in 10.0 mi SSW 4.6 mph - N/A   Clear
1:55 AM 70.3 °F - 64.4 °F 81% 30.01 in 10.0 mi SW 5.8 mph - N/A   Clear
2:15 AM 70.2 °F - 64.4 °F 82% 30.01 in 10.0 mi SW 5.8 mph - N/A   Clear
2:35 AM 70.3 °F - 64.0 °F 80% 30.01 in 10.0 mi SW 4.6 mph - N/A   Clear
2:55 AM 70.7 °F - 63.7 °F 78% 30.01 in 10.0 mi WSW 5.8 mph - N/A   Clear
3:15 AM 70.3 °F - 63.5 °F 79% 30.01 in 10.0 mi WSW 5.8 mph - N/A   Clear
3:35 AM 70.5 °F - 63.5 °F 78% 30.01 in 10.0 mi SW 5.8 mph - N/A   Clear
3:55 AM 70.7 °F - 63.5 °F 78% 30.00 in 10.0 mi WSW 5.8 mph - N/A   Scattered Clouds
4:15 AM 70.2 °F - 63.3 °F 79% 30.00 in 10.0 mi WSW 5.8 mph - N/A   Mostly Cloudy
4:35 AM 69.1 °F - 63.1 °F 81% 29.99 in 10.0 mi SW 4.6 mph - N/A   Mostly Cloudy
4:55 AM 68.2 °F - 63.0 °F 83% 29.99 in 10.0 mi SW 5.8 mph - N/A   Scattered Clouds
5:15 AM 67.6 °F - 62.6 °F 84% 29.99 in 10.0 mi SW 8.1 mph - N/A   Clear
5:35 AM 68.9 °F - 61.2 °F 76% 29.99 in 10.0 mi SW 8.1 mph - N/A   Clear
5:55 AM 69.4 °F - 60.8 °F 74% 29.99 in 10.0 mi WSW 6.9 mph - N/A   Clear
6:15 AM 69.1 °F - 60.8 °F 75% 29.99 in 10.0 mi SW 6.9 mph - N/A   Clear
6:35 AM 69.8 °F - 60.8 °F 73% 29.99 in 10.0 mi WSW 5.8 mph - N/A   Clear
6:55 AM 70.7 °F - 61.9 °F 74% 29.99 in 10.0 mi WSW 6.9 mph - N/A   Clear
7:15 AM 70.9 °F - 63.1 °F 76% 30.00 in 10.0 mi WSW 5.8 mph - N/A   Clear
7:35 AM 73.2 °F - 63.9 °F 72% 30.00 in 10.0 mi SW 4.6 mph - N/A   Clear
7:55 AM 74.8 °F - 64.6 °F 70% 30.00 in 10.0 mi SW 4.6 mph - N/A   Clear
8:35 AM 77.5 °F - 62.8 °F 60% 29.99 in 10.0 mi SW 6.9 mph - N/A   Clear
8:55 AM 79.2 °F - 62.6 °F 57% 30.00 in 10.0 mi WSW 8.1 mph - N/A   Clear
9:15 AM 77.7 °F - 63.3 °F 61% 30.00 in 10.0 mi WSW 5.8 mph - N/A   Clear
9:35 AM 78.6 °F - 62.6 °F 58% 30.00 in 10.0 mi WSW 12.7 mph - N/A   Clear
9:55 AM 80.6 °F 81.8 °F 62.4 °F 54% 30.00 in 10.0 mi West 10.4 mph - N/A   Clear
10:15 AM 81.5 °F 82.7 °F 63.0 °F 53% 29.99 in 10.0 mi SW 11.5 mph - N/A   Clear
10:35 AM 81.9 °F 82.9 °F 62.8 °F 52% 29.98 in 10.0 mi SW 9.2 mph - N/A   Clear
10:55 AM 82.6 °F 83.9 °F 64.0 °F 53% 29.98 in 10.0 mi WSW 15.0 mph - N/A   Clear
11:15 AM 81.9 °F 83.1 °F 63.0 °F 53% 29.99 in 10.0 mi WSW 13.8 mph 19.6 mph N/A   Scattered Clouds
11:35 AM 84.4 °F 85.0 °F 62.4 °F 47% 29.98 in 10.0 mi WSW 15.0 mph 21.9 mph N/A   Mostly Cloudy
11:55 AM 82.9 °F 83.7 °F 62.1 °F 49% 29.98 in 10.0 mi WSW 13.8 mph 18.4 mph N/A   Scattered Clouds
12:15 PM 83.3 °F 84.1 °F 62.2 °F 49% 29.98 in 10.0 mi West 15.0 mph - N/A   Scattered Clouds
12:35 PM 82.9 °F 84.0 °F 63.0 °F 51% 29.98 in 10.0 mi WSW 11.5 mph 18.4 mph N/A   Mostly Cloudy
12:55 PM 83.1 °F 84.2 °F 63.1 °F 51% 29.97 in 10.0 mi WSW 10.4 mph 18.4 mph N/A   Mostly Cloudy
1:15 PM 84.7 °F 85.0 °F 61.0 °F 45% 29.96 in 10.0 mi SW 12.7 mph 18.4 mph N/A   Scattered Clouds
1:35 PM 84.6 °F 85.0 °F 61.5 °F 46% 29.95 in 10.0 mi SW 15.0 mph 18.4 mph N/A   Clear
1:55 PM 84.7 °F 85.0 °F 61.2 °F 45% 29.94 in 10.0 mi West 13.8 mph 19.6 mph N/A   Clear
2:15 PM 85.6 °F 85.4 °F 60.1 °F 42% 29.93 in 10.0 mi SW 12.7 mph 21.9 mph N/A   Scattered Clouds
2:35 PM 85.6 °F 85.7 °F 61.0 °F 43% 29.93 in 10.0 mi WSW 12.7 mph 24.2 mph N/A   Scattered Clouds
2:55 PM 85.3 °F 85.4 °F 61.3 °F 44% 29.92 in 10.0 mi SW 13.8 mph 18.4 mph N/A   Scattered Clouds
3:15 PM 86.2 °F 86.1 °F 60.4 °F 42% 29.91 in 10.0 mi SW 12.7 mph 21.9 mph N/A   Scattered Clouds
3:35 PM 85.8 °F 86.1 °F 61.5 °F 44% 29.90 in 10.0 mi SW 13.8 mph - N/A   Scattered Clouds
3:55 PM 86.7 °F 87.0 °F 62.1 °F 43% 29.90 in 10.0 mi SW 12.7 mph 21.9 mph N/A   Scattered Clouds
4:15 PM 86.0 °F 86.1 °F 61.2 °F 43% 29.89 in 10.0 mi SW 16.1 mph 23.0 mph N/A   Scattered Clouds
4:35 PM 86.0 °F 85.4 °F 59.4 °F 40% 29.89 in 10.0 mi SW 16.1 mph 23.0 mph N/A   Mostly Cloudy
4:55 PM 85.8 °F 85.4 °F 59.4 °F 41% 29.88 in 10.0 mi WSW 16.1 mph 23.0 mph N/A   Scattered Clouds
5:15 PM 86.0 °F 85.4 °F 59.2 °F 40% 29.86 in 10.0 mi WSW 16.1 mph 25.3 mph N/A   Scattered Clouds
5:35 PM 85.8 °F 85.7 °F 60.3 °F 42% 29.85 in 10.0 mi SW 16.1 mph 20.7 mph N/A   Scattered Clouds
5:55 PM 85.5 °F 85.4 °F 60.6 °F 43% 29.84 in 10.0 mi SW 15.0 mph 20.7 mph N/A   Clear
6:15 PM 84.6 °F 84.6 °F 60.4 °F 44% 29.83 in 10.0 mi SW 12.7 mph - N/A   Clear
6:35 PM 83.5 °F 83.4 °F 59.5 °F 44% 29.83 in 10.0 mi SW 16.1 mph 24.2 mph N/A   Clear
6:55 PM 81.5 °F 82.1 °F 60.8 °F 49% 29.81 in 10.0 mi SSW 11.5 mph - N/A   Clear
7:15 PM 81.0 °F 81.7 °F 60.4 °F 50% 29.81 in 10.0 mi SW 11.5 mph - N/A   Clear
7:35 PM 80.1 °F 81.0 °F 60.4 °F 51% 29.82 in 10.0 mi SW 11.5 mph 18.4 mph N/A   Clear
7:55 PM 78.6 °F - 61.0 °F 55% 29.82 in 10.0 mi SSW 8.1 mph - N/A   Clear
8:15 PM 77.4 °F - 61.7 °F 58% 29.81 in 10.0 mi SSW 8.1 mph - N/A   Clear
8:35 PM 77.0 °F - 61.7 °F 59% 29.84 in 10.0 mi SW 8.1 mph - N/A   Clear
8:55 PM 77.2 °F - 61.7 °F 59% 29.85 in 10.0 mi SW 8.1 mph - N/A   Scattered Clouds
9:15 PM 77.2 °F - 61.9 °F 59% 29.84 in 10.0 mi SSW 10.4 mph - N/A   Scattered Clouds
9:35 PM 76.1 °F - 62.6 °F 63% 29.83 in 10.0 mi SSW 12.7 mph - N/A   Clear
9:55 PM 75.6 °F - 63.3 °F 66% 29.84 in 10.0 mi SW 8.1 mph - N/A Thunderstorm Scattered Clouds
10:15 PM 67.5 °F - 63.9 °F 88% 29.87 in 1.2 mi North 15.0 mph 40.3 mph 0.08 in   Overcast
10:35 PM 66.9 °F - 65.3 °F 95% 29.86 in 4.0 mi NNE 13.8 mph 17.3 mph 0.20 in Rain , Thunderstorm Heavy Thunderstorms and Rain
10:55 PM 66.2 °F - 64.8 °F 95% 29.85 in 2.0 mi NNE 15.0 mph - 0.32 in Rain , Thunderstorm Heavy Thunderstorms and Rain
11:15 PM 65.7 °F - 64.6 °F 96% 29.92 in 4.0 mi WSW 16.1 mph - 0.08 in Rain , Thunderstorm Heavy Thunderstorms and Rain
11:35 PM 65.7 °F - 64.6 °F 96% 29.88 in 3.0 mi SSE 4.6 mph - 0.17 in Rain , Thunderstorm Rain
11:55 PM 65.7 °F - 64.6 °F 96% 29.86 in 7.0 mi Calm Calm - 0.25 in Rain , Thunderstorm Rain